星链-5054 (STARLINK-5054 )

导读

STARLINK-5054是美国太空探索技术公司(SpaceX)星链项目的卫星,于2022年9月24日发射。作为低轨卫星互联网星座的一员,它运行在近地轨道,采用先进通信技术与霍尔推进系统,旨在为全球提供高速低延迟宽带互联网服务,尤其侧重覆盖偏远区域,截至当前仍在轨运行,助力扩展星链网络覆盖与稳定性。

基本信息
目录编号:
53906
目录名称:
STARLINK-5054
国际标识:
2022-119W
轨道中心:
EARTH
卫星名称:
星链-5054
卫星全名:
星链-5054 (STARLINK-5054 )
卫星状态:
在轨 (已飞行1360 天)
发射日期:
2022-09-24 UTC
国别 :
美国 (US)
星等 :
--
轨道信息
数据来源 国际轨道数据 AOE轨道数据
星历时间 2026-06-15T05:28:34+0800
10小时前
查看轨道信息
2026-06-11T06:00:00+0800
4天前
查看轨道信息
半长轴 6917.94km 6917.86km
偏心率 0.0001275 0.0001091
轨道倾角 53.159° 53.159°
近地点辐角 94.168° 72.351°
升交点赤经 237.384° 255.269°
平近点角 265.946° 267.419°
近地点 538.92km 538.968km
远地点 540.686km 540.478km
周期 95.439分钟 95.437分钟
每日圈数 15.088206 15.088467
详细信息
固有亮度:
5
最大亮度:
2.5
卫星平台:
Starlink v1.5
覆盖范围:
全球
运营商:
太空探索技术公司
运营商所在国:
美国
制造商(研发单位):
太空探索技术公司
制造商所在国:
美国
使用方式:
暂无
卫星简介
星链(Starlink)计划是由太空探索技术公司(SpaceX)提出的一个巨型低轨卫星互联网星座项目,计划在2019年至2024年间在太空搭建由约1.2万颗卫星组成的“星链”网络,其中1584颗将部署在地球上空550千米处的近地轨道,并从2020年开始工作。该卫星仍在工作。
2D轨道图
3D轨道图
轨道高度分析图
轨道倾角分析图
轨道综合分析图
查看轨道综合分析图